FW8114 Weather Reports


Display with metric or nautical units.
time (UTC)temp
F
wind
direction
speed
MPH
gust
MPH
rain 1hr
in
rain 24hr
in
rain mn
in
humidity
%
barometer
mb
20260506062416 65 187 1.0 1.0 0.00 0.00 0.00 74 1010.8
20260506061912 65 199 0.0 0.0 0.00 0.00 0.00 74 1010.6
20260506061408 65 195 1.0 1.0 0.00 0.00 0.00 74 1010.8
20260506060906 64 215 0.0 0.0 0.00 0.00 0.00 75 1010.7
20260506060404 64 223 0.0 0.0 0.00 0.00 0.00 74 1010.5
20260506051336 67 238 0.0 0.0 0.00 0.00 0.00 69 1011.0
20260506050834 67 185 1.0 1.0 0.00 0.00 0.00 68 1011.3
20260506050331 67 215 0.0 0.0 0.00 0.00 0.00 69 1011.2
20260506044821 67 216 2.0 2.0 0.00 0.00 0.00 67 1011.0
20260506044319 67 203 1.0 1.0 0.00 0.00 0.00 67 1011.0
20260506043816 68 192 0.0 0.0 0.00 0.00 0.00 66 1010.9
20260506043313 68 209 0.0 0.0 0.00 0.00 0.00 66 1010.9
20260506042812 68 211 0.0 1.0 0.00 0.00 0.00 65 1011.0
20260506042311 68 203 0.0 0.0 0.00 0.00 0.00 65 1011.2
20260506041809 68 195 3.0 5.0 0.00 0.00 0.00 64 1010.8
20260506041305 69 188 1.0 2.0 0.00 0.00 0.00 64 1011.2
20260506040803 69 211 3.0 5.0 0.00 0.00 0.00 64 1011.1
20260506040259 69 201 1.0 2.0 0.00 0.00 0.00 63 1010.9
20260506035756 68 212 2.0 3.0 0.00 0.00 0.00 64 1011.0
20260506035253 69 220 0.0 1.0 0.00 0.00 0.00 63 1011.3
20260506034750 69 226 3.0 3.0 0.00 0.00 0.00 62 1010.9
20260506034248 69 222 0.0 0.0 0.00 0.00 0.00 63 1010.8
20260506033744 69 203 0.0 0.0 0.00 0.00 0.00 63 1010.9
20260506033241 69 216 0.0 0.0 0.00 0.00 0.00 62 1010.8
20260506032738 69 219 0.0 1.0 0.00 0.00 0.00 63 1010.9
20260506032235 69 189 3.0 3.0 0.00 0.00 0.00 62 1010.9
20260506031732 69 190 4.0 5.0 0.00 0.00 0.00 61 1011.0
20260506031230 69 207 2.0 2.0 0.00 0.00 0.00 62 1010.8
20260506030728 69 180 0.0 0.0 0.00 0.00 0.00 62 1010.9
20260506030225 70 193 2.0 5.0 0.00 0.00 0.00 61 1010.9
20260506025721 69 212 3.0 5.0 0.00 0.00 0.00 61 1010.9
20260506025218 70 221 1.0 2.0 0.00 0.00 0.00 61 1010.7
20260506024715 70 228 1.0 1.0 0.00 0.00 0.00 60 1011.1
20260506024211 70 208 1.0 1.0 0.00 0.00 0.00 60 1011.2
20260506023708 70 230 1.0 1.0 0.00 0.00 0.00 60 1010.9
20260506023205 71 213 2.0 2.0 0.00 0.00 0.00 60 1011.0
20260506022702 71 225 3.0 5.0 0.00 0.00 0.00 59 1010.9
20260506022159 71 218 0.0 0.0 0.00 0.00 0.00 59 1010.8
20260506021657 71 163 2.0 6.0 0.00 0.00 0.00 59 1011.0
20260506021154 71 227 3.0 3.0 0.00 0.00 0.00 58 1010.8
20260506020651 72 227 2.0 3.0 0.00 0.00 0.00 57 1010.9
20260506020149 72 202 3.0 5.0 0.00 0.00 0.00 56 1010.7
20260506015646 72 234 2.0 3.0 0.00 0.00 0.00 56 1010.7
20260506015143 72 223 0.0 0.0 0.00 0.00 0.00 56 1010.7
20260506014641 72 209 2.0 2.0 0.00 0.00 0.00 55 1010.6
20260506014136 73 237 5.0 11.0 0.00 0.00 0.00 54 1010.6
20260506013635 73 225 1.0 2.0 0.00 0.00 0.00 52 1010.4
20260506013131 73 210 1.0 2.0 0.00 0.00 0.00 51 1010.4
20260506012627 74 210 2.0 2.0 0.00 0.00 0.00 49 1010.4
20260506012124 74 216 3.0 3.0 0.00 0.00 0.00 48 1010.3
20260506011621 74 255 5.0 7.0 0.00 0.00 0.00 47 1010.2
20260506011112 74 211 1.0 2.0 0.00 0.00 0.00 47 1010.0
20260506010606 75 178 5.0 7.0 0.00 0.00 0.00 46 1010.2
20260506005559 75 228 1.0 1.0 0.00 0.00 0.00 46 1009.9
20260506005055 75 234 2.0 3.0 0.00 0.00 0.00 45 1009.8
20260506004552 75 212 4.0 6.0 0.00 0.00 0.00 44 1009.7
20260506004049 75 244 4.0 6.0 0.00 0.00 0.00 45 1009.7
20260506003545 76 209 1.0 1.0 0.00 0.00 0.00 45 1009.6
20260506003042 76 206 1.0 1.0 0.00 0.00 0.00 44 1009.6
20260506002537 76 219 4.0 5.0 0.00 0.00 0.00 44 1009.6
20260506002034 76 158 3.0 5.0 0.00 0.00 0.00 44 1009.3
20260506001530 76 199 0.0 0.0 0.00 0.00 0.00 45 1009.5
20260506001027 77 200 2.0 3.0 0.00 0.00 0.00 43 1009.6
20260506000525 77 234 5.0 7.0 0.00 0.00 0.00 43 1009.4
20260506000022 77 177 1.0 2.0 0.00 0.00 0.00 43 1009.3
20260505235520 77 142 3.0 3.0 0.00 0.00 0.00 42 1009.4
20260505235016 77 218 1.0 2.0 0.00 0.00 0.00 41 1009.4
20260505234514 78 120 3.0 3.0 0.00 0.00 0.00 39 1009.4
20260505234010 78 213 2.0 2.0 0.00 0.00 0.00 39 1009.1
20260505233508 78 230 0.0 0.0 0.00 0.00 0.00 39 1009.2
20260505233005 78 220 9.0 13.0 0.00 0.00 0.00 38 1009.1
20260505232503 78 238 3.0 5.0 0.00 0.00 0.00 38 1009.2
20260505232000 79 226 3.0 3.0 0.00 0.00 0.00 38 1009.1
20260505231457 79 238 4.0 7.0 0.00 0.00 0.00 37 1009.0
20260505230955 80 221 5.0 7.0 0.00 0.00 0.00 36 1008.8
20260505230453 80 218 5.0 7.0 0.00 0.00 0.00 35 1008.8
20260505225949 80 221 1.0 2.0 0.00 0.00 0.00 34 1008.6
20260505225446 80 187 6.0 7.0 0.00 0.00 0.00 34 1008.8
20260505224942 80 239 2.0 3.0 0.00 0.00 0.00 35 1008.7
20260505224439 80 243 9.0 13.0 0.00 0.00 0.00 34 1008.7
20260505223936 80 294 3.0 5.0 0.00 0.00 0.00 35 1008.7
20260505223433 80 235 7.0 8.0 0.00 0.00 0.00 34 1008.5
20260505222929 80 207 3.0 5.0 0.00 0.00 0.00 35 1008.7
20260505222426 80 235 2.0 3.0 0.00 0.00 0.00 35 1008.6
20260505221922 81 247 2.0 2.0 0.00 0.00 0.00 34 1008.8
20260505221419 80 155 4.0 5.0 0.00 0.00 0.00 33 1008.7
20260505220916 81 293 6.0 8.0 0.00 0.00 0.00 33 1008.8
20260505220413 81 245 9.0 14.0 0.00 0.00 0.00 32 1008.5
20260505215911 82 237 9.0 13.0 0.00 0.00 0.00 32 1008.5
20260505215409 81 242 5.0 7.0 0.00 0.00 0.00 31 1008.5
20260505214906 81 215 3.0 3.0 0.00 0.00 0.00 32 1008.3
20260505214404 81 243 8.0 16.0 0.00 0.00 0.00 30 1008.4
20260505213901 81 232 6.0 7.0 0.00 0.00 0.00 30 1008.6
20260505213359 81 252 9.0 14.0 0.00 0.00 0.00 29 1008.5
20260505212854 82 240 7.0 9.0 0.00 0.00 0.00 30 1008.0
20260505212352 83 257 6.0 8.0 0.00 0.00 0.00 30 1008.1
20260505211848 83 188 4.0 5.0 0.00 0.00 0.00 31 1008.2
20260505211346 83 254 6.0 9.0 0.00 0.00 0.00 30 1008.1
20260505210842 83 158 3.0 3.0 0.00 0.00 0.00 30 1008.1
20260505210339 83 232 6.0 8.0 0.00 0.00 0.00 31 1008.0
20260505205835 83 242 9.0 14.0 0.00 0.00 0.00 31 1007.9
20260505205334 83 235 7.0 9.0 0.00 0.00 0.00 31 1008.0
20260505204830 83 243 14.0 18.0 0.00 0.00 0.00 31 1008.4
20260505204328 83 222 16.0 18.0 0.00 0.00 0.00 31 1008.3
20260505203826 83 274 14.0 20.0 0.00 0.00 0.00 32 1008.1
20260505203322 83 244 1.0 3.0 0.00 0.00 0.00 34 1008.3
20260505202818 83 108 8.0 10.0 0.00 0.00 0.00 32 1008.2
20260505202314 84 292 7.0 10.0 0.00 0.00 0.00 32 1008.1
20260505201811 83 195 6.0 7.0 0.00 0.00 0.00 32 1008.2
20260505201309 83 236 6.0 10.0 0.00 0.00 0.00 33 1008.1
20260505200807 83 259 3.0 5.0 0.00 0.00 0.00 33 1008.1
20260505200304 83 216 8.0 13.0 0.00 0.00 0.00 33 1008.1
20260505195758 83 258 5.0 7.0 0.00 0.00 0.00 33 1008.4
20260505195257 83 247 11.0 17.0 0.00 0.00 0.00 33 1008.4
20260505194753 82 257 12.0 16.0 0.00 0.00 0.00 34 1008.5
20260505194250 82 231 9.0 11.0 0.00 0.00 0.00 35 1008.5
20260505193745 82 266 7.0 9.0 0.00 0.00 0.00 36 1008.5
20260505193244 83 218 3.0 3.0 0.00 0.00 0.00 35 1008.5
20260505192742 83 154 9.0 13.0 0.00 0.00 0.00 35 1008.6
20260505192239 83 181 4.0 6.0 0.00 0.00 0.00 36 1008.6
20260505191737 82 266 4.0 7.0 0.00 0.00 0.00 37 1008.9
20260505191235 82 248 3.0 5.0 0.00 0.00 0.00 37 1009.0
20260505190731 83 228 5.0 7.0 0.00 0.00 0.00 36 1009.0
20260505190231 82 140 6.0 8.0 0.00 0.00 0.00 37 1008.9
20260505185728 82 254 7.0 9.0 0.00 0.00 0.00 37 1009.0
20260505185225 83 192 8.0 10.0 0.00 0.00 0.00 36 1009.1
20260505184720 83 193 5.0 7.0 0.00 0.00 0.00 34 1009.0
20260505184218 83 218 7.0 11.0 0.00 0.00 0.00 36 1009.2
20260505183715 83 225 4.0 6.0 0.00 0.00 0.00 38 1009.1
20260505183212 82 236 3.0 5.0 0.00 0.00 0.00 37 1009.4
20260505182708 82 240 5.0 8.0 0.00 0.00 0.00 38 1009.5
20260505182206 82 229 9.0 13.0 0.00 0.00 0.00 37 1009.5
20260505181702 82 205 5.0 8.0 0.00 0.00 0.00 38 1009.6
20260505181200 83 213 7.0 9.0 0.00 0.00 0.00 37 1009.4
20260505180655 83 222 7.0 10.0 0.00 0.00 0.00 38 1009.6
20260505180153 83 249 5.0 7.0 0.00 0.00 0.00 38 1009.5
20260505175649 83 228 8.0 11.0 0.00 0.00 0.00 38 1009.7
20260505175145 82 211 12.0 16.0 0.00 0.00 0.00 38 1009.5
20260505174642 82 243 5.0 6.0 0.00 0.00 0.00 39 1009.5
20260505174138 82 191 3.0 5.0 0.00 0.00 0.00 41 1009.5
20260505173635 83 199 3.0 5.0 0.00 0.00 0.00 42 1009.9
20260505173132 83 242 2.0 5.0 0.00 0.00 0.00 42 1009.8
20260505172629 83 222 0.0 1.0 0.00 0.00 0.00 43 1009.7
20260505172126 82 238 7.0 8.0 0.00 0.00 0.00 41 1009.7
20260505171621 81 235 4.0 7.0 0.00 0.00 0.00 40 1009.7
20260505171118 82 240 7.0 9.0 0.00 0.00 0.00 41 1009.8
20260505170615 81 212 7.0 10.0 0.00 0.00 0.00 43 1010.0
20260505170111 82 178 4.0 7.0 0.00 0.00 0.00 41 1009.9
20260505165606 80 231 5.0 7.0 0.00 0.00 0.00 41 1010.1
20260505165102 80 244 4.0 5.0 0.00 0.00 0.00 43 1010.2
20260505164558 80 240 9.0 11.0 0.00 0.00 0.00 43 1010.3
20260505164056 80 236 11.0 13.0 0.00 0.00 0.00 42 1010.3
20260505163554 80 258 7.0 9.0 0.00 0.00 0.00 43 1010.3
20260505163051 80 225 10.0 14.0 0.00 0.00 0.00 42 1010.4
20260505162549 79 249 3.0 5.0 0.00 0.00 0.00 43 1010.4
20260505162047 80 230 7.0 10.0 0.00 0.00 0.00 43 1010.7
20260505161543 79 187 1.0 2.0 0.00 0.00 0.00 46 1010.6
20260505161041 79 251 6.0 7.0 0.00 0.00 0.00 45 1010.6
20260505160539 79 153 3.0 3.0 0.00 0.00 0.00 45 1010.6
20260505153015 77 191 1.0 2.0 0.00 0.00 0.00 48 1010.9
20260505152512 77 256 5.0 6.0 0.00 0.00 0.00 47 1011.0
20260505152008 76 185 3.0 3.0 0.00 0.00 0.00 49 1011.1
20260505151503 76 218 0.0 1.0 0.00 0.00 0.00 52 1011.1
20260505151000 76 224 0.0 1.0 0.00 0.00 0.00 50 1011.0
20260505150457 76 207 2.0 2.0 0.00 0.00 0.00 51 1011.1
20260505140427 71 224 4.0 6.0 0.00 0.00 0.00 58 1012.0
20260505124840 66 251 3.0 5.0 0.00 0.00 0.00 64 1011.8
20260505124337 66 198 3.0 3.0 0.00 0.00 0.00 65 1012.0
20260505123833 66 212 1.0 1.0 0.00 0.00 0.00 66 1012.2
20260505123330 65 216 0.0 0.0 0.00 0.00 0.00 67 1012.0
20260505122826 65 226 4.0 6.0 0.00 0.00 0.00 66 1012.0
20260505122324 65 213 1.0 2.0 0.00 0.00 0.00 67 1011.9
20260505121820 65 253 1.0 1.0 0.00 0.00 0.00 68 1011.9
20260505121317 65 224 1.0 2.0 0.00 0.00 0.00 68 1011.6
20260505120813 64 227 0.0 0.0 0.00 0.00 0.00 70 1011.8
20260505120309 63 218 0.0 0.0 0.00 0.00 0.00 73 1011.8
20260505115808 62 219 0.0 0.0 0.00 0.00 0.00 74 1011.8
20260505115306 60 227 0.0 0.0 0.00 0.00 0.00 78 1012.1
20260505114803 59 228 0.0 0.0 0.00 0.00 0.00 81 1011.8
20260505114300 58 226 0.0 0.0 0.00 0.00 0.00 86 1012.1
20260505113756 56 226 0.0 0.0 0.00 0.00 0.00 90 1012.0
20260505113252 55 246 0.0 0.0 0.00 0.00 0.00 90 1011.9
20260505112748 54 228 0.0 0.0 0.00 0.00 0.00 91 1011.9
20260505112246 53 243 0.0 0.0 0.00 0.00 0.00 91 1011.9
20260505111741 53 241 0.0 0.0 0.00 0.00 0.00 91 1011.9
20260505111237 52 229 0.0 0.0 0.00 0.00 0.00 92 1012.2
20260505110733 51 230 0.0 0.0 0.00 0.00 0.00 92 1011.8
20260505110231 51 228 0.0 0.0 0.00 0.00 0.00 92 1011.9
20260505102206 50 231 0.0 1.0 0.00 0.00 0.00 90 1011.9
20260505101705 50 237 0.0 0.0 0.00 0.00 0.00 90 1011.9
20260505101201 50 206 0.0 0.0 0.00 0.00 0.00 90 1011.8
20260505100657 49 227 0.0 0.0 0.00 0.00 0.00 90 1011.9
20260505100154 49 214 0.0 0.0 0.00 0.00 0.00 90 1012.1
20260505095649 48 227 0.0 0.0 0.00 0.00 0.00 90 1011.9
20260505095147 48 230 0.0 0.0 0.00 0.00 0.00 90 1011.9
20260505094643 48 264 1.0 1.0 0.00 0.00 0.00 90 1012.1
20260505094139 48 238 0.0 0.0 0.00 0.00 0.00 90 1011.7
20260505093636 48 234 0.0 0.0 0.00 0.00 0.00 90 1011.7
20260505093133 48 213 0.0 0.0 0.00 0.00 0.00 90 1011.5
20260505092630 48 224 0.0 0.0 0.00 0.00 0.00 90 1011.4
20260505092129 49 269 0.0 1.0 0.00 0.00 0.00 90 1011.5
20260505091625 49 235 0.0 0.0 0.00 0.00 0.00 90 1011.1
20260505091124 49 245 0.0 1.0 0.00 0.00 0.00 90 1011.1
20260505090621 49 208 0.0 0.0 0.00 0.00 0.00 90 1011.0
20260505090119 48 234 0.0 0.0 0.00 0.00 0.00 90 1011.1
20260505085616 48 235 0.0 0.0 0.00 0.00 0.00 90 1011.2
20260505085114 48 230 0.0 0.0 0.00 0.00 0.00 90 1011.0
20260505084612 48 231 0.0 0.0 0.00 0.00 0.00 90 1011.1
20260505084110 48 229 0.0 0.0 0.00 0.00 0.00 90 1011.0
20260505083607 48 232 0.0 0.0 0.00 0.00 0.00 89 1011.0
20260505083103 48 232 0.0 0.0 0.00 0.00 0.00 89 1011.0
20260505082559 48 235 0.0 0.0 0.00 0.00 0.00 89 1011.1
20260505082057 48 238 0.0 0.0 0.00 0.00 0.00 89 1011.0
20260505081553 48 231 0.0 0.0 0.00 0.00 0.00 90 1011.1
20260505081050 48 234 0.0 0.0 0.00 0.00 0.00 90 1011.1
20260505080546 47 238 0.0 0.0 0.00 0.00 0.00 89 1011.2
20260505080043 47 232 0.0 0.0 0.00 0.00 0.00 89 1011.1
20260505075539 47 236 0.0 0.0 0.00 0.00 0.00 89 1011.1
20260505075036 48 237 0.0 0.0 0.00 0.00 0.00 89 1011.1
20260505074533 47 226 0.0 0.0 0.00 0.00 0.00 89 1011.3
20260505074030 47 232 0.0 0.0 0.00 0.00 0.00 89 1011.2
20260505073527 47 242 0.0 0.0 0.00 0.00 0.00 89 1011.0
20260505073026 47 227 0.0 0.0 0.00 0.00 0.00 89 1011.1
20260505072521 47 232 0.0 0.0 0.00 0.00 0.00 89 1011.1
20260505072017 47 233 0.0 0.0 0.00 0.00 0.00 89 1011.0
20260505071513 47 233 0.0 0.0 0.00 0.00 0.00 89 1011.1
20260505071011 47 229 0.0 0.0 0.00 0.00 0.00 89 1010.7
20260505070509 47 231 0.0 0.0 0.00 0.00 0.00 89 1010.8
20260505070004 47 228 0.0 0.0 0.00 0.00 0.00 88 1010.9